����������;��������(kWh)
2018-03-26 00:00;82,95
2018-03-26 00:15;81,8
2018-03-26 00:30;82
2018-03-26 00:45;83,25
2018-03-26 01:00;82,1
2018-03-26 01:15;80,6
2018-03-26 01:30;77,4
2018-03-26 01:45;73,7
2018-03-26 02:00;73,5
2018-03-26 02:15;74,65
2018-03-26 02:30;74,9
2018-03-26 02:45;73,55
2018-03-26 03:00;75,4
2018-03-26 03:15;74,1
2018-03-26 03:30;75,8
2018-03-26 03:45;75,5
2018-03-26 04:00;75,5
2018-03-26 04:15;77,7
2018-03-26 04:30;74,85
2018-03-26 04:45;74,45
2018-03-26 05:00;76,45
2018-03-26 05:15;78,75
2018-03-26 05:30;77,95
2018-03-26 05:45;76,8
2018-03-26 06:00;78,4
2018-03-26 06:15;75,75
2018-03-26 06:30;78,35
2018-03-26 06:45;76,25
2018-03-26 07:00;77,05
2018-03-26 07:15;78,45
2018-03-26 07:30;124,55
2018-03-26 07:45;107,55
2018-03-26 08:00;98,55
2018-03-26 08:15;107,05
2018-03-26 08:30;105
2018-03-26 08:45;106,3
2018-03-26 09:00;116,4
2018-03-26 09:15;120,3
2018-03-26 09:30;124,65
2018-03-26 09:45;130,75
2018-03-26 10:00;132,7
2018-03-26 10:15;139,6
2018-03-26 10:30;143,7
2018-03-26 10:45;149,85
2018-03-26 11:00;154,55
2018-03-26 11:15;151,55
2018-03-26 11:30;158,4
2018-03-26 11:45;163,2
2018-03-26 12:00;160,8
2018-03-26 12:15;164,5
2018-03-26 12:30;173,25
2018-03-26 12:45;178,3
2018-03-26 13:00;171,2
2018-03-26 13:15;169,7
2018-03-26 13:30;164,65
2018-03-26 13:45;164,85
2018-03-26 14:00;162,1
2018-03-26 14:15;163,9
2018-03-26 14:30;156,9
2018-03-26 14:45;157,05
2018-03-26 15:00;150,65
2018-03-26 15:15;148,5
2018-03-26 15:30;148,65
2018-03-26 15:45;145,55
2018-03-26 16:00;136,15
2018-03-26 16:15;128,75
2018-03-26 16:30;126,5
2018-03-26 16:45;126,3
2018-03-26 17:00;125,1
2018-03-26 17:15;119,55
2018-03-26 17:30;120,2
2018-03-26 17:45;120,15
2018-03-26 18:00;119,6
2018-03-26 18:15;115,7
2018-03-26 18:30;111
2018-03-26 18:45;113,15
2018-03-26 19:00;120,25
2018-03-26 19:15;115,8
2018-03-26 19:30;112,4
2018-03-26 19:45;113,1
2018-03-26 20:00;111,1
2018-03-26 20:15;109,4
2018-03-26 20:30;109,25
2018-03-26 20:45;107,2
2018-03-26 21:00;105,65
2018-03-26 21:15;108,25
2018-03-26 21:30;101,65
2018-03-26 21:45;99,3
2018-03-26 22:00;95,85
2018-03-26 22:15;93,95
2018-03-26 22:30;92,2
2018-03-26 22:45;99,3
2018-03-26 23:00;103
2018-03-26 23:15;100,55
2018-03-26 23:30;101
2018-03-26 23:45;108
2018-03-27 00:00;98
2018-03-27 00:15;96,05
2018-03-27 00:30;97,25
2018-03-27 00:45;99,45
2018-03-27 01:00;97,25
2018-03-27 01:15;97,15
2018-03-27 01:30;96,9
2018-03-27 01:45;91
2018-03-27 02:00;89,4
2018-03-27 02:15;87,5
2018-03-27 02:30;88,25
2018-03-27 02:45;88,1
2018-03-27 03:00;90,05
2018-03-27 03:15;87,55
2018-03-27 03:30;89,75
2018-03-27 03:45;90,35
2018-03-27 04:00;91,45
2018-03-27 04:15;89
2018-03-27 04:30;87,7
2018-03-27 04:45;86,65
2018-03-27 05:00;87,35
2018-03-27 05:15;87,55
2018-03-27 05:30;89,4
2018-03-27 05:45;89,95
2018-03-27 06:00;87,5
2018-03-27 06:15;87,8
2018-03-27 06:30;90,1
2018-03-27 06:45;87,6
2018-03-27 07:00;90,85
2018-03-27 07:15;88,1
2018-03-27 07:30;139,85
2018-03-27 07:45;104,05
2018-03-27 08:00;104,55
2018-03-27 08:15;103,75
2018-03-27 08:30;96,3
2018-03-27 08:45;116,55
2018-03-27 09:00;115,7
2018-03-27 09:15;111,95
2018-03-27 09:30;118,25
2018-03-27 09:45;125,35
2018-03-27 10:00;125,95
2018-03-27 10:15;135,65
2018-03-27 10:30;130,4
2018-03-27 10:45;143,75
2018-03-27 11:00;137,4
2018-03-27 11:15;141,9
2018-03-27 11:30;139,2
2018-03-27 11:45;140,75
2018-03-27 12:00;141,6
2018-03-27 12:15;145,25
2018-03-27 12:30;145,75
2018-03-27 12:45;149,7
2018-03-27 13:00;150,4
2018-03-27 13:15;151
2018-03-27 13:30;154,85
2018-03-27 13:45;155,5
2018-03-27 14:00;152,1
2018-03-27 14:15;150,65
2018-03-27 14:30;144,65
2018-03-27 14:45;144,7
2018-03-27 15:00;142,15
2018-03-27 15:15;140,65
2018-03-27 15:30;141,05
2018-03-27 15:45;134,15
2018-03-27 16:00;128,45
2018-03-27 16:15;127,95
2018-03-27 16:30;121,95
2018-03-27 16:45;124,2
2018-03-27 17:00;126,7
2018-03-27 17:15;124,05
2018-03-27 17:30;127,15
2018-03-27 17:45;122,85
2018-03-27 18:00;117,45
2018-03-27 18:15;115,35
2018-03-27 18:30;109,9
2018-03-27 18:45;119
2018-03-27 19:00;122,4
2018-03-27 19:15;117,05
2018-03-27 19:30;115,65
2018-03-27 19:45;124
2018-03-27 20:00;127
2018-03-27 20:15;122,35
2018-03-27 20:30;110,65
2018-03-27 20:45;107,5
2018-03-27 21:00;101,7
2018-03-27 21:15;100,9
2018-03-27 21:30;96,6
2018-03-27 21:45;93,7
2018-03-27 22:00;90,9
2018-03-27 22:15;90,15
2018-03-27 22:30;90,05
2018-03-27 22:45;88,85
2018-03-27 23:00;91,75
2018-03-27 23:15;86,15
2018-03-27 23:30;90,25
2018-03-27 23:45;92,85
2018-03-28 00:00;81,65
2018-03-28 00:15;82,8
2018-03-28 00:30;81,6
2018-03-28 00:45;81,65
2018-03-28 01:00;82,2
2018-03-28 01:15;82,45
2018-03-28 01:30;81,55
2018-03-28 01:45;77,85
2018-03-28 02:00;78,3
2018-03-28 02:15;76,45
2018-03-28 02:30;77,25
2018-03-28 02:45;79,25
2018-03-28 03:00;76,95
2018-03-28 03:15;76,4
2018-03-28 03:30;80,05
2018-03-28 03:45;77,9
2018-03-28 04:00;80,65
2018-03-28 04:15;84,05
2018-03-28 04:30;82,25
2018-03-28 04:45;81,65
2018-03-28 05:00;82,05
2018-03-28 05:15;82,15
2018-03-28 05:30;82,6
2018-03-28 05:45;85,1
2018-03-28 06:00;80,45
2018-03-28 06:15;81,3
2018-03-28 06:30;81,6
2018-03-28 06:45;82,15
2018-03-28 07:00;82
2018-03-28 07:15;86,55
2018-03-28 07:30;142,4
2018-03-28 07:45;102,9
2018-03-28 08:00;108,6
2018-03-28 08:15;107,5
2018-03-28 08:30;107,45
2018-03-28 08:45;121,8
2018-03-28 09:00;119,5
2018-03-28 09:15;136,35
2018-03-28 09:30;133,45
2018-03-28 09:45;144,5
2018-03-28 10:00;137,1
2018-03-28 10:15;149,75
2018-03-28 10:30;146,85
2018-03-28 10:45;159,15
2018-03-28 11:00;154,4
2018-03-28 11:15;152,75
2018-03-28 11:30;156,2
2018-03-28 11:45;159
2018-03-28 12:00;159,65
2018-03-28 12:15;163,5
2018-03-28 12:30;162,9
2018-03-28 12:45;165
2018-03-28 13:00;166,9
2018-03-28 13:15;162,05
2018-03-28 13:30;164,65
2018-03-28 13:45;162,1
2018-03-28 14:00;155
2018-03-28 14:15;154,45
2018-03-28 14:30;150,85
2018-03-28 14:45;139,35
2018-03-28 15:00;143,35
2018-03-28 15:15;132,75
2018-03-28 15:30;133,95
2018-03-28 15:45;129,7
2018-03-28 16:00;128,2
2018-03-28 16:15;126
2018-03-28 16:30;122,75
2018-03-28 16:45;123,25
2018-03-28 17:00;123,1
2018-03-28 17:15;117,8
2018-03-28 17:30;118,1
2018-03-28 17:45;118,75
2018-03-28 18:00;113,4
2018-03-28 18:15;113,55
2018-03-28 18:30;107,2
2018-03-28 18:45;109,7
2018-03-28 19:00;116,1
2018-03-28 19:15;106,95
2018-03-28 19:30;108,05
2018-03-28 19:45;111,9
2018-03-28 20:00;107,65
2018-03-28 20:15;104,65
2018-03-28 20:30;104,9
2018-03-28 20:45;103,9
2018-03-28 21:00;106,3
2018-03-28 21:15;103,4
2018-03-28 21:30;100,8
2018-03-28 21:45;100
2018-03-28 22:00;92,85
2018-03-28 22:15;90,85
2018-03-28 22:30;92,55
2018-03-28 22:45;89,75
2018-03-28 23:00;93,7
2018-03-28 23:15;87,95
2018-03-28 23:30;90,8
2018-03-28 23:45;95,85
2018-03-29 00:00;86,8
2018-03-29 00:15;86
2018-03-29 00:30;86,4
2018-03-29 00:45;85
2018-03-29 01:00;85,7
2018-03-29 01:15;86,4
2018-03-29 01:30;84,05
2018-03-29 01:45;83,15
2018-03-29 02:00;84,7
2018-03-29 02:15;82,6
2018-03-29 02:30;82
2018-03-29 02:45;84
2018-03-29 03:00;83,1
2018-03-29 03:15;84,35
2018-03-29 03:30;85,35
2018-03-29 03:45;84,4
2018-03-29 04:00;85,75
2018-03-29 04:15;84,45
2018-03-29 04:30;84,35
2018-03-29 04:45;86,15
2018-03-29 05:00;83,1
2018-03-29 05:15;84,55
2018-03-29 05:30;87,45
2018-03-29 05:45;87
2018-03-29 06:00;85,35
2018-03-29 06:15;87,1
2018-03-29 06:30;82,35
2018-03-29 06:45;80,3
2018-03-29 07:00;81,65
2018-03-29 07:15;82,4
2018-03-29 07:30;132,75
2018-03-29 07:45;107,35
2018-03-29 08:00;108
2018-03-29 08:15;106,95
2018-03-29 08:30;113,2
2018-03-29 08:45;117,7
2018-03-29 09:00;117,45
2018-03-29 09:15;127,75
2018-03-29 09:30;125,7
2018-03-29 09:45;135,75
2018-03-29 10:00;136,55
2018-03-29 10:15;142,35
2018-03-29 10:30;152
2018-03-29 10:45;149,5
2018-03-29 11:00;151,05
2018-03-29 11:15;147,85
2018-03-29 11:30;146,45
2018-03-29 11:45;152,1
2018-03-29 12:00;146,65
2018-03-29 12:15;144,95
2018-03-29 12:30;147,6
2018-03-29 12:45;145,4
2018-03-29 13:00;148,75
2018-03-29 13:15;154,65
2018-03-29 13:30;149,55
2018-03-29 13:45;149,65
2018-03-29 14:00;145,45
2018-03-29 14:15;143,25
2018-03-29 14:30;141,55
2018-03-29 14:45;137,85
2018-03-29 15:00;134,5
2018-03-29 15:15;130,1
2018-03-29 15:30;126,7
2018-03-29 15:45;125,35
2018-03-29 16:00;120,65
2018-03-29 16:15;115,8
2018-03-29 16:30;114,9
2018-03-29 16:45;110,8
2018-03-29 17:00;112,2
2018-03-29 17:15;108,1
2018-03-29 17:30;103,1
2018-03-29 17:45;106,65
2018-03-29 18:00;101,5
2018-03-29 18:15;99,35
2018-03-29 18:30;98,6
2018-03-29 18:45;100,7
2018-03-29 19:00;108,1
2018-03-29 19:15;104,8
2018-03-29 19:30;101,05
2018-03-29 19:45;106,85
2018-03-29 20:00;102,95
2018-03-29 20:15;98
2018-03-29 20:30;100,85
2018-03-29 20:45;100,85
2018-03-29 21:00;97,5
2018-03-29 21:15;95,95
2018-03-29 21:30;92,6
2018-03-29 21:45;91,7
2018-03-29 22:00;87,5
2018-03-29 22:15;86,7
2018-03-29 22:30;88,75
2018-03-29 22:45;88,2
2018-03-29 23:00;94,45
2018-03-29 23:15;90,75
2018-03-29 23:30;90,55
2018-03-29 23:45;95,2
2018-03-30 00:00;85,6
2018-03-30 00:15;83,35
2018-03-30 00:30;81,65
2018-03-30 00:45;78,45
2018-03-30 01:00;78,4
2018-03-30 01:15;81,65
2018-03-30 01:30;80,3
2018-03-30 01:45;81,6
2018-03-30 02:00;80,7
2018-03-30 02:15;79,4
2018-03-30 02:30;78,8
2018-03-30 02:45;76,05
2018-03-30 03:00;77,6
2018-03-30 03:15;77,85
2018-03-30 03:30;76,6
2018-03-30 03:45;79,15
2018-03-30 04:00;78,5
2018-03-30 04:15;78,6
2018-03-30 04:30;80,2
2018-03-30 04:45;77,8
2018-03-30 05:00;78,5
2018-03-30 05:15;79,15
2018-03-30 05:30;81,1
2018-03-30 05:45;81,7
2018-03-30 06:00;81,8
2018-03-30 06:15;78,9
2018-03-30 06:30;80,15
2018-03-30 06:45;75,55
2018-03-30 07:00;78,45
2018-03-30 07:15;78,4
2018-03-30 07:30;123,7
2018-03-30 07:45;93,9
2018-03-30 08:00;101,45
2018-03-30 08:15;102,8
2018-03-30 08:30;107,6
2018-03-30 08:45;111,25
2018-03-30 09:00;122,3
2018-03-30 09:15;115,9
2018-03-30 09:30;116,35
2018-03-30 09:45;144,6
2018-03-30 10:00;137,9
2018-03-30 10:15;136,3
2018-03-30 10:30;134,8
2018-03-30 10:45;146,15
2018-03-30 11:00;145,75
2018-03-30 11:15;138,05
2018-03-30 11:30;139,05
2018-03-30 11:45;136,05
2018-03-30 12:00;133,5
2018-03-30 12:15;138
2018-03-30 12:30;150,7
2018-03-30 12:45;150,95
2018-03-30 13:00;143,7
2018-03-30 13:15;141,05
2018-03-30 13:30;138,2
2018-03-30 13:45;138,55
2018-03-30 14:00;136,5
2018-03-30 14:15;129,8
2018-03-30 14:30;130,55
2018-03-30 14:45;133,5
2018-03-30 15:00;129,15
2018-03-30 15:15;130,2
2018-03-30 15:30;127,8
2018-03-30 15:45;117,45
2018-03-30 16:00;118,9
2018-03-30 16:15;116,1
2018-03-30 16:30;110,75
2018-03-30 16:45;109,9
2018-03-30 17:00;110,25
2018-03-30 17:15;99,7
2018-03-30 17:30;96,9
2018-03-30 17:45;102,4
2018-03-30 18:00;100,75
2018-03-30 18:15;102,15
2018-03-30 18:30;100,7
2018-03-30 18:45;103,05
2018-03-30 19:00;108,5
2018-03-30 19:15;98,5
2018-03-30 19:30;96,55
2018-03-30 19:45;100,85
2018-03-30 20:00;101,4
2018-03-30 20:15;98,85
2018-03-30 20:30;97,45
2018-03-30 20:45;94,5
2018-03-30 21:00;93,1
2018-03-30 21:15;95,7
2018-03-30 21:30;90
2018-03-30 21:45;88,2
2018-03-30 22:00;88,9
2018-03-30 22:15;86,3
2018-03-30 22:30;84,9
2018-03-30 22:45;82,55
2018-03-30 23:00;86,4
2018-03-30 23:15;78,9
2018-03-30 23:30;84,2
2018-03-30 23:45;86,1
2018-03-31 00:00;75,75
2018-03-31 00:15;77,55
2018-03-31 00:30;76,05
2018-03-31 00:45;75,3
2018-03-31 01:00;76,1
2018-03-31 01:15;78,05
2018-03-31 01:30;77,55
2018-03-31 01:45;77,05
2018-03-31 02:00;78,35
2018-03-31 02:15;76,8
2018-03-31 02:30;75,65
2018-03-31 02:45;77,8
2018-03-31 03:00;76,25
2018-03-31 03:15;72,75
2018-03-31 03:30;75,15
2018-03-31 03:45;73,5
2018-03-31 04:00;74,45
2018-03-31 04:15;75,4
2018-03-31 04:30;73,6
2018-03-31 04:45;74,35
2018-03-31 05:00;74,25
2018-03-31 05:15;73,25
2018-03-31 05:30;73,8
2018-03-31 05:45;73,1
2018-03-31 06:00;71
2018-03-31 06:15;71,45
2018-03-31 06:30;69,4
2018-03-31 06:45;67,35
2018-03-31 07:00;68,8
2018-03-31 07:15;63,9
2018-03-31 07:30;63,15
2018-03-31 07:45;63,5
2018-03-31 08:00;63,85
2018-03-31 08:15;65
2018-03-31 08:30;65,1
2018-03-31 08:45;67,7
2018-03-31 09:00;65,65
2018-03-31 09:15;64,55
2018-03-31 09:30;65,25
2018-03-31 09:45;65,95
2018-03-31 10:00;67,35
2018-03-31 10:15;67,95
2018-03-31 10:30;68,65
2018-03-31 10:45;68,25
2018-03-31 11:00;68,25
2018-03-31 11:15;69,4
2018-03-31 11:30;72,85
2018-03-31 11:45;73,3
2018-03-31 12:00;73,8
2018-03-31 12:15;72,9
2018-03-31 12:30;68,85
2018-03-31 12:45;69,55
2018-03-31 13:00;70
2018-03-31 13:15;70,9
2018-03-31 13:30;75,2
2018-03-31 13:45;71,8
2018-03-31 14:00;72
2018-03-31 14:15;70,85
2018-03-31 14:30;71,1
2018-03-31 14:45;72,45
2018-03-31 15:00;71,5
2018-03-31 15:15;71,25
2018-03-31 15:30;69,75
2018-03-31 15:45;71,75
2018-03-31 16:00;71,2
2018-03-31 16:15;66,9
2018-03-31 16:30;71,55
2018-03-31 16:45;76,4
2018-03-31 17:00;75,3
2018-03-31 17:15;70,8
2018-03-31 17:30;68,85
2018-03-31 17:45;71,75
2018-03-31 18:00;67,65
2018-03-31 18:15;69,45
2018-03-31 18:30;71,2
2018-03-31 18:45;72
2018-03-31 19:00;80,5
2018-03-31 19:15;78,65
2018-03-31 19:30;74,1
2018-03-31 19:45;75,25
2018-03-31 20:00;77,8
2018-03-31 20:15;80
2018-03-31 20:30;78,45
2018-03-31 20:45;79
2018-03-31 21:00;83,45
2018-03-31 21:15;77,4
2018-03-31 21:30;76,65
2018-03-31 21:45;78,45
2018-03-31 22:00;74
2018-03-31 22:15;73,35
2018-03-31 22:30;75,4
2018-03-31 22:45;74,45
2018-03-31 23:00;79,7
2018-03-31 23:15;74,9
2018-03-31 23:30;79,1
2018-03-31 23:45;81,5
2018-04-01 00:00;70,45
2018-04-01 00:15;71,65
2018-04-01 00:30;69,35
2018-04-01 00:45;70,9
2018-04-01 01:00;70,45
2018-04-01 01:15;70,65
2018-04-01 01:30;70,35
2018-04-01 01:45;71,65
2018-04-01 02:00;71,85
2018-04-01 02:15;71,75
2018-04-01 02:30;70,65
2018-04-01 02:45;72,05
2018-04-01 03:00;71,15
2018-04-01 03:15;71,35
2018-04-01 03:30;74,35
2018-04-01 03:45;73,85
2018-04-01 04:00;73,25
2018-04-01 04:15;74,6
2018-04-01 04:30;74,4
2018-04-01 04:45;74,55
2018-04-01 05:00;74,85
2018-04-01 05:15;74,1
2018-04-01 05:30;73,4
2018-04-01 05:45;74,2
2018-04-01 06:00;70,4
2018-04-01 06:15;68,85
2018-04-01 06:30;69,95
2018-04-01 06:45;68,05
2018-04-01 07:00;65,55
2018-04-01 07:15;63,5
2018-04-01 07:30;61,4
2018-04-01 07:45;60,25
2018-04-01 08:00;61,85
2018-04-01 08:15;61,35
2018-04-01 08:30;60,75
2018-04-01 08:45;62,6
2018-04-01 09:00;63,25
2018-04-01 09:15;64,65
2018-04-01 09:30;65,4
2018-04-01 09:45;66,8
2018-04-01 10:00;64,65
2018-04-01 10:15;65,15
2018-04-01 10:30;66,1
2018-04-01 10:45;66,9
2018-04-01 11:00;67,6
2018-04-01 11:15;67
2018-04-01 11:30;67,6
2018-04-01 11:45;65,9
2018-04-01 12:00;67,55
2018-04-01 12:15;65,8
2018-04-01 12:30;67,35
2018-04-01 12:45;67,7
2018-04-01 13:00;67,5
2018-04-01 13:15;68,6
2018-04-01 13:30;70,85
2018-04-01 13:45;67,55
2018-04-01 14:00;63
2018-04-01 14:15;63,05
2018-04-01 14:30;62,25
2018-04-01 14:45;62,8
2018-04-01 15:00;62,95
2018-04-01 15:15;61,95
2018-04-01 15:30;62,35
2018-04-01 15:45;63,75
2018-04-01 16:00;62,2
2018-04-01 16:15;61,3
2018-04-01 16:30;63,7
2018-04-01 16:45;63,3
2018-04-01 17:00;66,3
2018-04-01 17:15;64,2
2018-04-01 17:30;64,3
2018-04-01 17:45;65,9
2018-04-01 18:00;65,25
2018-04-01 18:15;64,6
2018-04-01 18:30;63,8
2018-04-01 18:45;65,35
2018-04-01 19:00;72,05
2018-04-01 19:15;69,45
2018-04-01 19:30;69,7
2018-04-01 19:45;71,5
2018-04-01 20:00;76,6
2018-04-01 20:15;75,2
2018-04-01 20:30;74,3
2018-04-01 20:45;78,5
2018-04-01 21:00;77
2018-04-01 21:15;77,05
2018-04-01 21:30;74,4
2018-04-01 21:45;74,7
2018-04-01 22:00;74,25
2018-04-01 22:15;73,8
2018-04-01 22:30;73
2018-04-01 22:45;71,95
2018-04-01 23:00;78,3
2018-04-01 23:15;75,15
2018-04-01 23:30;78,2
2018-04-01 23:45;81,55

